Kezdőlap
METAR-TAF:

METAR-TAF

Repülőterek :

Keokuk Municipal Airport

Keokuk, Iowa, Amerikai Egyesült Államok

földrajzi szélesség: 40-28N, földrajzi hosszúság: 091-26W, magasság: 205 m

Jelenlegi meteorológiai megfigyelések

A jelentés 16 perccel ezelõtt készült, 12:15 UTC
Északkeleti szél 6 kt
Hőmérséklet 1°C
Páratartalom 100%
Légköri nyomás 1027 hPa
Látótávolság: 4.0 km
Borult 400 lábon
Párásság

METAR: KEOK 081215Z AUTO 05006KT 2 1/2SM BR OVC004 01/01 A3032 RMK A01

Idő: 06:31 (12:31 UTC)


TAF: hiányzik

Meteorológiai megfigyelések és előrejelzések több, mint 4000 repülőtéren (METAR és TAF jelentéseket).

A térképen piros és sárga pontok jelzik az elérhető meteorológiai állomásokat.

Mozgassa az egeret a pont fölött, hogy megjelenjen az állomás neve.

Azután kattintson az időjárási megfigyelések és előrejelzések megtekintéséhez.

A térkép megváltoztatása: kattintson a fekete keresztel jelölt zöld gombra ráközelítéshez, a vonallal jelölt zöld gombra távolításhoz, vagy a zöld nyilakra a szomszédos térképek eléréséhez.


METAR-TAF: